Location: Montebello
(37.3256°N, 122.1789°W)
Time: 14:44:48
(UTC-08:00)

OTV 5 (USA 277) - Visible Passes

Search period start: 21 January 2018 00:00
Search period end: 31 January 2018 00:00
Orbit: 404 x 417 km, 43.0° (Epoch: 07 September)

Date Brightness Start Highest point End Pass type
(mag) Time Alt. Az. Time Alt. Az. Time Alt. Az.
21 Jan ? 18:02:21 10° S 18:04:06 14° SE 18:05:51 10° ESE visible
21 Jan ? 19:37:40 10° WSW 19:38:56 21° WSW 19:38:56 21° WSW visible
22 Jan ? 18:46:42 10° SW 18:49:59 53° SSE 18:50:30 47° ESE visible
23 Jan ? 17:55:55 10° SSW 17:59:00 33° SSE 18:02:01 10° E visible
23 Jan ? 19:32:58 10° W 19:34:47 27° WNW 19:34:47 27° WNW visible
24 Jan ? 18:41:47 10° WSW 18:45:08 67° NNW 18:46:14 38° NE visible
25 Jan ? 17:50:41 10° WSW 17:54:03 84° SSE 17:57:26 10° ENE visible
25 Jan ? 19:28:30 10° WNW 19:30:25 25° NW 19:30:25 25° NW visible
26 Jan ? 18:37:14 10° W 18:40:25 38° NNW 18:41:49 25° NE visible
27 Jan ? 19:24:01 10° WNW 19:25:57 24° NW 19:25:57 24° NW visible
28 Jan ? 18:32:47 10° WNW 18:35:49 30° N 18:37:20 21° NE visible
29 Jan ? 19:19:19 10° WNW 19:21:29 28° NNW 19:21:29 28° NNW visible
30 Jan ? 18:28:12 10° WNW 18:31:15 30° N 18:32:55 20° NE visible
30 Jan ? 20:05:31 10° WNW 20:05:41 11° WNW 20:05:41 11° WNW visible
